Content
SEND FEEDBACK

Daily
Averages
Monthly
Summary
United States of America

MAURICEVILLE, TEXAS


Home > North America > United States > Texas
Elevation: 20 feet     Latitude: 30 14N     Longitude: 093 44W

WEATHER
 
SELECT A DAY
Number of Records: 115,249;   Date Range: 8/25/05 - 10/19/14
 
SHARE

PRINT THIS DATA

[ ← Previous Day ]
WEATHER ALMANAC - FEBRUARY 9, 2013
[ Next Day → ]
[ °C ]   °F
Weather ElementAverageHighLow
Temperature57.4 °F64.4 °F (1:35 pm)46.4 °F (3:55 am)
Dewpoint55.9 °F64.4 °F (11:35 pm)46.4 °F (1:55 am)
Humidity94.9 %100 % (12:35 am)82 % (11:55 am)
Barometer30.08 in30.18 in (7:35 am)29.95 in (11:55 pm)
Wind Speed8.8 mph15 mph (6:35 pm)
Wind Gust23 mph (5:55 pm)
Weather ElementAverage
Visibility9.3 mi
Wind DirectionENE (78.6 °)

Weather ElementTotal
Precipitation---
Heating Degree Days9.6 (Base 65)
Growing Degree Days5.4 (Base 50)
Averaged from 71 records on February 9, 2013
WEATHER CONDITIONS BREAKOUT
WIND DIRECTION BREAKOUT
WEATHER BY HOUR - FEBRUARY 9, 2013
[ °C ]   °F
Local TimeTemperatureDewpointHumidityBarometerVisibilityWind DirectionWind SpeedGust SpeedPrecipitationEventsConditions
12:35 AM50.0 °F50.0 °F100 %30.17 in10.0 miNE (40°)3.5 mphClear
12:55 AM50.0 °F50.0 °F100 %30.17 in10.0 miCalmClear
1:15 AM50.0 °F50.0 °F100 %30.16 in10.0 miNNE (20°)3.5 mphClear
1:35 AM50.0 °F48.2 °F94 %30.16 in10.0 miNNE (20°)3.5 mphClear
1:55 AM48.2 °F46.4 °F93 %30.16 in10.0 miNNE (30°)3.5 mphClear
2:15 AM48.2 °F48.2 °F100 %30.16 in10.0 miNNE (20°)4.6 mphClear
2:35 AM48.2 °F48.2 °F100 %30.16 in10.0 miNNE (20°)4.6 mphClear
2:55 AM48.2 °F48.2 °F100 %30.16 in10.0 miCalmScattered Clouds
3:15 AM50.0 °F48.2 °F94 %30.15 in10.0 miNE (40°)4.6 mphMostly Cloudy
3:35 AM48.2 °F46.4 °F93 %30.15 in10.0 miNNE (30°)5.8 mphScattered Clouds
3:55 AM46.4 °F46.4 °F100 %30.14 in10.0 miNE (40°)5.8 mphScattered Clouds
4:15 AM46.4 °F46.4 °F100 %30.14 in10.0 miNNE (30°)4.6 mphClear
4:35 AM46.4 °F46.4 °F100 %30.13 in10.0 miNNE (30°)5.8 mphClear
4:55 AM46.4 °F46.4 °F100 %30.14 in10.0 miNNE (20°)4.6 mphClear
5:15 AM46.4 °F46.4 °F100 %30.14 in10.0 miCalmMostly Cloudy
5:35 AM48.2 °F48.2 °F100 %30.15 in10.0 miNE (40°)5.8 mphOvercast
5:55 AM50.0 °F48.2 °F94 %30.14 in10.0 miNE (40°)6.9 mphOvercast
6:15 AM50.0 °F50.0 °F100 %30.16 in10.0 miNE (40°)4.6 mphOvercast
6:35 AM50.0 °F50.0 °F100 %30.16 in10.0 miNE (40°)3.5 mphOvercast
6:55 AM50.0 °F50.0 °F100 %30.17 in10.0 miNNE (30°)4.6 mphOvercast
7:15 AM51.8 °F50.0 °F94 %30.17 in10.0 miNE (50°)3.5 mphOvercast
7:35 AM51.8 °F50.0 °F94 %30.18 in10.0 miNE (40°)5.8 mphOvercast
7:55 AM51.8 °F50.0 °F94 %30.18 in10.0 miENE (60°)5.8 mphOvercast
8:15 AM51.8 °F51.8 °F100 %30.18 in10.0 miENE (60°)6.9 mphOvercast
8:35 AM51.8 °F51.8 °F100 %30.18 in10.0 miENE (60°)6.9 mphOvercast
8:55 AM53.6 °F51.8 °F94 %30.17 in10.0 miENE (60°)8.1 mphOvercast
9:15 AM53.6 °F53.6 °F100 %30.17 in10.0 miENE (70°)9.2 mphOvercast
9:35 AM55.4 °F53.6 °F94 %30.17 in10.0 miENE (70°)8.1 mphOvercast
9:55 AM55.4 °F53.6 °F94 %30.16 in10.0 miEast (80°)10.4 mphOvercast
10:15 AM57.2 °F55.4 °F94 %30.16 in10.0 miEast (90°)8.1 mphOvercast
10:35 AM57.2 °F55.4 °F94 %30.16 in10.0 miEast (80°)8.1 mphOvercast
10:55 AM59.0 °F55.4 °F88 %30.16 in10.0 miEast (80°)9.2 mphOvercast
11:15 AM59.0 °F55.4 °F88 %30.15 in10.0 miEast (90°)8.1 mphOvercast
11:35 AM59.0 °F55.4 °F88 %30.14 in10.0 miESE (110°)12.7 mphOvercast
11:55 AM60.8 °F55.4 °F82 %30.13 in10.0 miEast (100°)12.7 mphOvercast
12:15 PM60.8 °F57.2 °F88 %30.12 in10.0 miESE (110°)12.7 mphOvercast
12:35 PM60.8 °F59.0 °F94 %30.11 in10.0 miEast (100°)10.4 mphOvercast
12:55 PM62.6 °F59.0 °F88 %30.10 in10.0 miEast (100°)12.7 mphOvercast
1:15 PM62.6 °F59.0 °F88 %30.08 in10.0 miEast (80°)9.2 mphOvercast
1:35 PM64.4 °F59.0 °F83 %30.07 in10.0 miESE (110°)9.2 mph17.3 mphOvercast
1:55 PM64.4 °F60.8 °F88 %30.06 in10.0 miESE (110°)13.8 mph19.6 mphOvercast
2:15 PM64.4 °F60.8 °F88 %30.05 in10.0 miEast (100°)13.8 mph17.3 mphOvercast
2:35 PM64.4 °F60.8 °F88 %30.04 in10.0 miEast (100°)13.8 mphOvercast
2:55 PM64.4 °F60.8 °F88 %30.04 in10.0 miEast (100°)10.4 mphOvercast
3:15 PM64.4 °F60.8 °F88 %30.03 in10.0 miSE (130°)11.5 mph17.3 mphOvercast
3:35 PM64.4 °F60.8 °F88 %30.03 in10.0 miSE (130°)12.7 mphOvercast
3:55 PM64.4 °F60.8 °F88 %30.03 in10.0 miESE (120°)12.7 mph19.6 mphOvercast
4:15 PM62.6 °F60.8 °F94 %30.03 in10.0 miESE (120°)11.5 mphOvercast
4:35 PM62.6 °F60.8 °F94 %30.02 in10.0 miESE (110°)9.2 mphOvercast
4:55 PM62.6 °F60.8 °F94 %30.01 in10.0 miESE (110°)11.5 mph19.6 mphOvercast
5:15 PM62.6 °F60.8 °F94 %30.00 in7.0 miEast (100°)11.5 mphOvercast
5:35 PM62.6 °F60.8 °F94 %29.99 in7.0 miEast (100°)11.5 mph18.4 mphOvercast
5:55 PM62.6 °F60.8 °F94 %29.99 in7.0 miESE (110°)13.8 mph23.0 mphOvercast
6:15 PM62.6 °F60.8 °F94 %29.99 in10.0 miESE (110°)12.7 mphOvercast
6:35 PM62.6 °F60.8 °F94 %29.98 in10.0 miEast (100°)15.0 mph20.7 mphOvercast
6:55 PM62.6 °F60.8 °F94 %29.98 in10.0 miESE (110°)12.7 mph21.9 mphOvercast
7:15 PM62.6 °F60.8 °F94 %29.98 in10.0 miEast (100°)15.0 mph21.9 mphOvercast
7:35 PM62.6 °F62.6 °F100 %29.98 in10.0 miESE (110°)13.8 mph19.6 mphOvercast
7:55 PM62.6 °F62.6 °F100 %29.99 in7.0 miESE (110°)10.4 mph16.1 mphOvercast
8:15 PM62.6 °F62.6 °F100 %29.99 in7.0 miESE (110°)10.4 mph16.1 mphOvercast
8:35 PM62.6 °F62.6 °F100 %29.99 in7.0 miESE (110°)8.1 mphOvercast
8:55 PM62.6 °F62.6 °F100 %29.99 in7.0 miESE (110°)9.2 mph16.1 mphOvercast
9:15 PM62.6 °F62.6 °F100 %29.98 in7.0 miESE (110°)12.7 mph16.1 mphOvercast
9:35 PM62.6 °F62.6 °F100 %29.98 in7.0 miEast (100°)12.7 mph17.3 mphOvercast
9:55 PM62.6 °F62.6 °F100 %29.98 in7.0 miESE (110°)12.7 mphOvercast
10:15 PM64.4 °F62.6 °F94 %29.97 in7.0 miESE (120°)9.2 mphOvercast
10:35 PM64.4 °F62.6 °F94 %29.97 in7.0 miESE (120°)8.1 mphOvercast
10:55 PM64.4 °F62.6 °F94 %29.96 in7.0 miESE (120°)12.7 mphOvercast
11:15 PM64.4 °F62.6 °F94 %29.96 in7.0 miESE (110°)11.5 mph16.1 mphOvercast
11:35 PM64.4 °F64.4 °F100 %29.96 in7.0 miSE (130°)11.5 mph17.3 mphOvercast
11:55 PM64.4 °F64.4 °F100 %29.95 in7.0 miESE (120°)8.1 mphOvercast
Hourly data recorded from KORG, located miles away from Mauriceville, Texas







STORIES FROM OUR PARTNERS